SCOUT X-4 DEB, 805

Orbit data source: Space-Track

SCOUT X-4 DEB, 805 is space debris in LEO originally from a launch on Thu, 04 Jun 1964 UTC launched from the Air Force Western Test Range (AFWTR). Debris objects in space refer to the collection of defunct objects orbiting the Earth. Examples of debris include non-operational satellites, rocket bodies, and fragments generated from explosions, collisions, or faulty payload assembly.

Loading next visibility...
Identifier
805, 1964-026B
Orbit
LEO
Country
Flag of USUS
Related business
Manufacturer
Unknown
Mission
Spacecraft
Bus & Motor
Unknown
Mass
Unknown
Launch date (UTC)
1964-06-04 (62 years ago)
Launch vehicle
Unknown
Launch site
Air Force Western Test Range (AFWTR)
Object type
Payload
Rocket body
Debris
Shape & HBR
Unknown shape, 0.1 m
Radar Cross Section
Small (<0.1 m²)

Expand to show TLE details & history
Last TLE update: 1 day ago

TLE from 1 day ago
0 SCOUT X-4 DEB
1 00805U 64026B   26036.81511452  .00003480  00000-0  11986-2 0  9997
2 00805  89.8631 331.0632 0026731 267.0924  92.7216 14.35627148171183
Epoch: 2026-02-05T19:33Z
TLE epoch observation values (Epoch: 2026-02-05T19:33:45.894Z)
Latitude
Longitude
-98.33996°
Altitude
777.019 km
Speed
7.465 km/s
True Right ascension
22h 04m 15s
True Declination
0° 00' 00"
Sunlit
Object was in daylight at epoch
Visualization orbit readout
Latitude
Unknown
Longitude
Unknown
Altitude
Unknown
Speed
Unknown
Apparent Right ascension
Unknown
Apparent Declination
Unknown
Sunlit
N/A
Visualization observer readout
Local Sidereal Time
01:39:37
Azimuth
Unknown
Elevation
Unknown
Doppler factor
Unknown
Orbital elements
Apogee altitude
789.017 km
Perigee altitude
750.802 km
Semi-major axis
7,148.046 km
Eccentricity
0.00267
Inclination
89.8631°
RAAN
331.0632°
Arg. of periapsis
267.0924°
True anomaly
93.02752°
Mean anomaly
92.7216°
Eccentric anomaly
92.87456°
Mean motion
3.59139 °/min
Orbital period
100.24 mins
BSTAR
0.0011986
Loading maneuver chart data...
Computing Atmospheric mass density...
Loading historical data...
Loading historical data...
Loading historical data...
Loading historical data...
Loading historical data...
Loading historical data...
Loading historical data...

Documentation

Showing up to 5 results
|